contact:dominique.lefevre@mio.osupytheas.fr, maurice.libes@osupytheas.fr, didier.mallarino@osupytheas.fr
Project:EMSO http://www.emso-fr.org/EMSO-France
Depth: 2436.0 m
Title:EMSO Ligure Ouest : Data MII capteur AQUADOPP
Date,Latitude,Longitude,X_East,Y_North,Z_Up,Amplitude_X,Amplitude_Y,Amplitude_Z,Batterie,SoundSpeed,Heading,Pitch,Roll,Pressure,TIS,Speed,Direction
, degrees North, degrees East, m.s-1, m.s-1,m.s-1, 1, 1, 1, Volt, m.s-1, degree, degree, degree, dbar, degree_C, m.s-1, degree
2023-08-19T00:04:03,42.805,6.029,-0.003,-0.019,-0.03,104.0,103.0,102.0,13.3,1505.2,351.2,-0.8,1.8,2471.526,13.28,0.019,189.0
2023-08-19T00:07:03,42.805,6.029,-0.009,0.008,-0.05,104.0,103.0,101.0,13.3,1505.2,332.3,-0.8,1.8,2471.479,13.29,0.012,311.6
2023-08-19T00:10:03,42.805,6.029,0.002,-0.028,-0.036,102.0,102.0,102.0,13.4,1505.2,345.1,-0.7,1.8,2471.479,13.29,0.028,175.9
2023-08-19T00:13:03,42.805,6.029,-0.004,-0.016,-0.045,104.0,104.0,100.0,13.4,1505.2,340.7,-0.7,1.8,2471.465,13.29,0.016,194.0
2023-08-19T00:16:03,42.805,6.029,0.0,-0.02,0.004,104.0,102.0,102.0,13.4,1505.2,331.2,-0.7,1.8,2471.456,13.29,0.02,180.0
2023-08-19T00:19:03,42.805,6.029,0.012,-0.015,-0.026,103.0,103.0,101.0,13.4,1505.2,329.3,-0.7,1.8,2471.466,13.29,0.019,141.3
2023-08-19T00:22:03,42.805,6.029,-0.008,0.004,-0.017,103.0,103.0,102.0,13.3,1505.2,342.1,-0.7,1.8,2471.423,13.29,0.008,296.6
2023-08-19T00:25:03,42.805,6.029,-0.01,-0.026,-0.022,103.0,103.0,102.0,13.4,1505.2,343.0,-0.7,1.8,2471.459,13.29,0.027,201.0
2023-08-19T00:28:03,42.805,6.029,0.001,-0.006,-0.016,105.0,103.0,103.0,13.3,1505.2,347.7,-0.7,1.8,2471.429,13.29,0.006,170.5
2023-08-19T00:31:03,42.805,6.029,0.024,-0.027,-0.004,102.0,103.0,103.0,13.4,1505.2,323.1,-0.8,1.8,2471.501,13.29,0.036,138.4
2023-08-19T00:34:03,42.805,6.029,0.02,-0.034,-0.011,104.0,103.0,102.0,13.3,1505.2,331.6,-0.8,1.8,2471.442,13.29,0.039,149.5
2023-08-19T00:37:03,42.805,6.029,0.003,-0.006,-0.034,104.0,103.0,102.0,13.3,1505.2,333.9,-0.8,1.8,2471.42,13.29,0.006,153.4
2023-08-19T00:40:03,42.805,6.029,0.008,0.005,-0.006,102.0,102.0,101.0,13.4,1505.2,345.7,-0.7,1.9,2471.436,13.29,0.009,58.0
2023-08-19T00:43:03,42.805,6.029,0.006,-0.036,-0.026,103.0,103.0,102.0,13.3,1505.2,333.4,-0.8,1.8,2471.447,13.29,0.036,170.5
2023-08-19T00:46:03,42.805,6.029,0.008,-0.017,-0.058,104.0,102.0,102.0,13.3,1505.2,335.0,-0.7,1.8,2471.448,13.29,0.018,154.8
2023-08-19T00:49:03,42.805,6.029,0.013,-0.025,-0.017,103.0,102.0,103.0,13.4,1505.2,338.4,-0.8,1.8,2471.419,13.29,0.028,152.5
2023-08-19T00:52:03,42.805,6.029,0.014,-0.025,0.0,103.0,103.0,101.0,13.4,1505.2,340.6,-0.8,1.8,2471.404,13.29,0.028,150.7
2023-08-19T00:55:03,42.805,6.029,-0.002,-0.016,-0.054,103.0,102.0,101.0,13.4,1505.2,331.2,-0.7,1.8,2471.432,13.29,0.016,187.1
2023-08-19T00:58:03,42.805,6.029,0.021,-0.013,-0.008,103.0,102.0,102.0,13.4,1505.2,327.4,-0.8,1.8,2471.419,13.29,0.024,121.8
2023-08-19T01:04:03,42.805,6.029,0.023,0.01,-0.071,107.0,103.0,103.0,13.4,1505.2,330.7,-0.8,1.8,2471.482,13.28,0.025,66.5
2023-08-19T01:07:03,42.805,6.029,0.003,-0.029,-0.025,102.0,103.0,102.0,13.3,1505.2,321.6,-0.8,1.8,2471.469,13.28,0.029,174.1
2023-08-19T01:10:03,42.805,6.029,0.019,-0.017,-0.028,103.0,103.0,101.0,13.3,1505.2,331.8,-0.7,1.8,2471.452,13.29,0.025,131.8
2023-08-19T01:13:03,42.805,6.029,0.028,-0.017,-0.02,104.0,101.0,102.0,13.3,1505.2,329.1,-0.7,1.9,2471.443,13.29,0.032,121.3
2023-08-19T01:16:03,42.805,6.029,0.004,-0.024,-0.04,103.0,102.0,103.0,13.3,1505.2,344.0,-0.8,1.8,2471.451,13.29,0.024,170.5
2023-08-19T01:19:03,42.805,6.029,-0.007,-0.011,-0.047,102.0,104.0,101.0,13.3,1505.2,350.1,-0.8,1.8,2471.422,13.29,0.013,212.5
2023-08-19T01:22:03,42.805,6.029,0.018,-0.019,-0.022,104.0,104.0,101.0,13.3,1505.2,320.0,-0.8,1.8,2471.425,13.29,0.026,136.5
2023-08-19T01:25:03,42.805,6.029,-0.004,-0.044,-0.043,106.0,102.0,101.0,13.4,1505.2,353.2,-0.7,1.8,2471.367,13.29,0.044,185.2
2023-08-19T01:28:03,42.805,6.029,0.008,-0.013,-0.012,101.0,103.0,103.0,13.4,1505.2,321.6,-0.8,1.8,2471.393,13.29,0.015,148.4
2023-08-19T01:31:03,42.805,6.029,0.036,-0.022,-0.004,104.0,102.0,101.0,13.3,1505.2,345.6,-0.7,1.8,2471.428,13.29,0.042,121.4
2023-08-19T01:34:03,42.805,6.029,-0.002,-0.021,-0.041,104.0,101.0,101.0,13.3,1505.2,342.3,-0.7,1.8,2471.411,13.29,0.021,185.4
2023-08-19T01:37:03,42.805,6.029,0.011,-0.041,-0.018,103.0,104.0,101.0,13.3,1505.2,352.3,-0.8,1.8,2471.426,13.29,0.042,165.0
2023-08-19T01:40:03,42.805,6.029,0.005,-0.01,-0.022,104.0,103.0,101.0,13.4,1505.2,330.3,-0.7,1.8,2471.383,13.29,0.011,153.4
2023-08-19T01:43:03,42.805,6.029,0.017,-0.009,-0.017,104.0,103.0,102.0,13.4,1505.2,336.3,-0.8,1.8,2471.4,13.29,0.019,117.9
2023-08-19T01:46:03,42.805,6.029,0.0,-0.035,-0.052,104.0,104.0,101.0,13.4,1505.2,344.6,-0.8,1.8,2471.389,13.29,0.035,180.0
2023-08-19T01:49:03,42.805,6.029,-0.014,-0.019,-0.027,103.0,104.0,101.0,13.4,1505.2,333.9,-0.7,1.8,2471.418,13.29,0.023,216.4
2023-08-19T01:52:03,42.805,6.029,0.0,-0.015,-0.021,104.0,102.0,101.0,13.3,1505.2,343.4,-0.7,1.8,2471.421,13.29,0.015,180.0
2023-08-19T01:55:03,42.805,6.029,0.002,-0.04,-0.054,104.0,104.0,101.0,13.4,1505.2,345.6,-0.8,1.8,2471.363,13.29,0.04,177.1
2023-08-19T01:58:03,42.805,6.029,-0.002,-0.024,-0.009,103.0,103.0,102.0,13.4,1505.2,341.5,-0.8,1.8,2471.368,13.29,0.024,184.8
2023-08-19T02:04:03,42.805,6.029,0.007,-0.049,-0.04,104.0,102.0,102.0,13.3,1505.2,331.3,-0.8,1.8,2471.458,13.28,0.049,171.9
2023-08-19T02:07:03,42.805,6.029,0.019,-0.038,-0.015,103.0,104.0,102.0,13.4,1505.2,326.5,-0.8,1.8,2471.439,13.28,0.042,153.4
2023-08-19T02:10:03,42.805,6.029,0.0,-0.013,-0.021,103.0,103.0,101.0,13.4,1505.2,324.2,-0.8,1.8,2471.423,13.29,0.013,180.0
2023-08-19T02:13:03,42.805,6.029,0.013,-0.032,-0.026,103.0,103.0,102.0,13.4,1505.2,332.1,-0.7,1.8,2471.395,13.29,0.034,157.9
2023-08-19T02:16:03,42.805,6.029,0.031,-0.031,-0.022,104.0,104.0,103.0,13.4,1505.2,326.8,-0.8,1.8,2471.412,13.29,0.043,135.0
2023-08-19T02:19:03,42.805,6.029,0.012,-0.01,-0.006,105.0,103.0,101.0,13.4,1505.2,335.6,-0.7,1.8,2471.394,13.29,0.015,129.8
2023-08-19T02:22:03,42.805,6.029,0.019,-0.025,-0.008,104.0,104.0,101.0,13.4,1505.2,337.5,-0.8,1.9,2471.419,13.29,0.031,142.8
2023-08-19T02:25:03,42.805,6.029,0.002,-0.013,-0.034,104.0,103.0,102.0,13.4,1505.2,331.1,-0.8,1.8,2471.396,13.29,0.013,171.3
2023-08-19T02:28:03,42.805,6.029,-0.002,-0.027,-0.025,104.0,103.0,102.0,13.3,1505.2,340.8,-0.8,1.8,2471.423,13.29,0.027,184.2
2023-08-19T02:31:03,42.805,6.029,0.003,-0.037,-0.016,103.0,102.0,102.0,13.4,1505.2,347.1,-0.8,1.9,2471.376,13.29,0.037,175.4
2023-08-19T02:34:03,42.805,6.029,0.0,-0.025,-0.017,105.0,104.0,101.0,13.4,1505.2,341.2,-0.8,1.8,2471.37,13.29,0.025,180.0
2023-08-19T02:37:03,42.805,6.029,0.006,-0.029,-0.028,103.0,101.0,103.0,13.4,1505.2,328.2,-0.8,1.8,2471.358,13.29,0.029,168.3
2023-08-19T02:40:03,42.805,6.029,0.013,-0.023,-0.039,104.0,103.0,103.0,13.4,1505.2,352.3,-0.8,1.8,2471.392,13.29,0.026,150.5
2023-08-19T02:43:03,42.805,6.029,0.013,-0.033,-0.024,103.0,102.0,103.0,13.4,1505.2,342.3,-0.8,1.8,2471.359,13.29,0.035,158.5
2023-08-19T02:46:03,42.805,6.029,0.014,-0.028,-0.036,102.0,103.0,102.0,13.4,1505.2,332.5,-0.7,1.8,2471.401,13.29,0.031,153.4
2023-08-19T02:49:03,42.805,6.029,0.009,-0.035,-0.029,104.0,103.0,101.0,13.4,1505.2,349.5,-0.8,1.8,2471.358,13.29,0.036,165.6
2023-08-19T02:52:03,42.805,6.029,0.014,-0.009,-0.038,104.0,104.0,101.0,13.4,1505.2,319.7,-0.8,1.8,2471.36,13.29,0.016,122.7
2023-08-19T02:55:03,42.805,6.029,0.009,-0.03,-0.034,103.0,102.0,102.0,13.4,1505.2,352.8,-0.7,1.8,2471.386,13.29,0.031,163.3
2023-08-19T02:58:03,42.805,6.029,0.011,-0.024,-0.016,105.0,104.0,102.0,13.4,1505.2,335.0,-0.8,1.8,2471.38,13.29,0.026,155.4
2023-08-19T03:04:03,42.805,6.029,0.0,-0.04,-0.043,104.0,103.0,102.0,13.4,1505.2,346.4,-0.8,1.8,2471.441,13.28,0.04,180.0
2023-08-19T03:07:03,42.805,6.029,-0.004,-0.033,-0.041,104.0,103.0,101.0,13.4,1505.2,327.9,-0.8,1.8,2471.412,13.28,0.033,186.9
2023-08-19T03:10:03,42.805,6.029,0.0,-0.022,-0.027,103.0,103.0,101.0,13.4,1505.2,340.0,-0.8,1.8,2471.383,13.29,0.022,180.0
2023-08-19T03:13:03,42.805,6.029,-0.002,-0.03,-0.026,104.0,103.0,102.0,13.4,1505.2,348.4,-0.8,1.8,2471.391,13.29,0.03,183.8
2023-08-19T03:16:03,42.805,6.029,0.01,-0.022,-0.024,103.0,103.0,101.0,13.4,1505.2,319.8,-0.8,1.8,2471.389,13.29,0.024,155.6
2023-08-19T03:19:03,42.805,6.029,0.024,-0.029,-0.002,103.0,104.0,101.0,13.4,1505.2,331.2,-0.7,1.8,2471.424,13.29,0.037,140.4
2023-08-19T03:22:03,42.805,6.029,0.01,-0.014,-0.04,103.0,105.0,101.0,13.4,1505.2,345.4,-0.8,1.8,2471.396,13.29,0.017,144.5
2023-08-19T03:25:03,42.805,6.029,-0.008,-0.036,-0.04,103.0,102.0,102.0,13.4,1505.2,340.9,-0.8,1.8,2471.37,13.29,0.036,192.5
2023-08-19T03:28:03,42.805,6.029,0.001,-0.035,-0.03,104.0,103.0,103.0,13.4,1505.2,338.3,-0.7,1.8,2471.353,13.29,0.035,178.4
2023-08-19T03:31:03,42.805,6.029,0.018,-0.045,-0.002,102.0,102.0,102.0,13.4,1505.2,342.9,-0.8,1.8,2471.379,13.29,0.048,158.2
2023-08-19T03:34:03,42.805,6.029,-0.004,-0.025,-0.019,104.0,102.0,102.0,13.3,1505.2,336.0,-0.7,1.8,2471.328,13.29,0.025,189.1
2023-08-19T03:37:03,42.805,6.029,0.006,-0.004,-0.025,104.0,103.0,101.0,13.4,1505.2,331.6,-0.8,1.8,2471.382,13.29,0.007,123.7
2023-08-19T03:40:03,42.805,6.029,0.021,-0.022,-0.019,105.0,103.0,102.0,13.4,1505.2,323.4,-0.8,1.8,2471.35,13.29,0.03,136.3
2023-08-19T03:43:03,42.805,6.029,-0.022,-0.019,-0.08,103.0,104.0,102.0,13.3,1505.2,337.1,-0.8,1.8,2471.35,13.29,0.029,229.2
2023-08-19T03:46:03,42.805,6.029,0.006,-0.022,-0.012,104.0,102.0,102.0,13.4,1505.2,334.4,-0.7,1.8,2471.383,13.29,0.022,164.7
2023-08-19T03:49:03,42.805,6.029,-0.001,-0.03,-0.028,102.0,104.0,102.0,13.3,1505.2,341.1,-0.8,1.8,2471.362,13.29,0.03,181.9
2023-08-19T03:52:03,42.805,6.029,-0.001,-0.043,-0.036,102.0,104.0,102.0,13.3,1505.2,338.0,-0.8,1.8,2471.347,13.29,0.043,181.3
2023-08-19T03:55:03,42.805,6.029,0.026,-0.014,0.0,103.0,104.0,101.0,13.4,1505.2,320.9,-0.8,1.8,2471.391,13.29,0.029,118.3
2023-08-19T03:58:03,42.805,6.029,0.02,-0.04,-0.008,104.0,105.0,101.0,13.4,1505.2,350.3,-0.8,1.8,2471.389,13.29,0.044,153.4
2023-08-19T04:04:03,42.805,6.029,0.012,-0.033,-0.04,105.0,103.0,101.0,13.4,1505.2,327.1,-0.8,1.8,2471.421,13.28,0.035,160.0
2023-08-19T04:07:03,42.805,6.029,0.004,-0.038,-0.007,104.0,103.0,102.0,13.4,1505.2,331.3,-0.8,1.8,2471.409,13.28,0.038,174.0
2023-08-19T04:10:03,42.805,6.029,0.011,-0.02,-0.013,104.0,103.0,102.0,13.3,1505.2,343.7,-0.8,1.9,2471.38,13.29,0.022,151.2
2023-08-19T04:13:03,42.805,6.029,-0.021,-0.019,-0.028,104.0,103.0,103.0,13.4,1505.2,343.3,-0.8,1.8,2471.397,13.29,0.028,227.9
2023-08-19T04:16:03,42.805,6.029,-0.012,-0.037,-0.059,103.0,103.0,102.0,13.3,1505.2,328.6,-0.8,1.9,2471.399,13.29,0.038,198.0
2023-08-19T04:19:03,42.805,6.029,0.013,-0.026,-0.025,104.0,103.0,101.0,13.4,1505.2,341.5,-0.8,1.8,2471.458,13.29,0.029,153.4
2023-08-19T04:22:03,42.805,6.029,-0.008,-0.015,-0.024,104.0,104.0,102.0,13.4,1505.2,329.2,-0.7,1.8,2471.386,13.29,0.017,208.1
2023-08-19T04:25:03,42.805,6.029,0.002,-0.024,-0.022,105.0,102.0,102.0,13.4,1505.2,330.3,-0.8,1.8,2471.389,13.29,0.024,175.2
2023-08-19T04:28:03,42.805,6.029,-0.029,-0.006,-0.035,104.0,102.0,102.0,13.4,1505.2,347.5,-0.8,1.8,2471.346,13.29,0.029,258.3
2023-08-19T04:31:03,42.805,6.029,-0.002,-0.003,-0.038,103.0,104.0,101.0,13.4,1505.2,331.2,-0.7,1.8,2471.394,13.29,0.003,213.7
2023-08-19T04:34:03,42.805,6.029,0.03,-0.008,-0.02,105.0,103.0,102.0,13.4,1505.2,327.5,-0.7,1.8,2471.4,13.29,0.031,104.9
2023-08-19T04:37:03,42.805,6.029,0.01,-0.042,-0.031,104.0,105.0,103.0,13.3,1505.2,329.0,-0.8,1.8,2471.374,13.29,0.043,166.6
2023-08-19T04:40:03,42.805,6.029,0.008,-0.013,-0.004,104.0,104.0,103.0,13.4,1505.2,345.7,-0.8,1.8,2471.396,13.29,0.015,148.4
2023-08-19T04:43:03,42.805,6.029,-0.026,-0.026,-0.031,103.0,104.0,102.0,13.4,1505.2,335.0,-0.8,1.9,2471.419,13.29,0.036,225.0
2023-08-19T04:46:03,42.805,6.029,-0.008,-0.039,-0.081,104.0,103.0,101.0,13.4,1505.2,353.5,-0.8,1.8,2471.365,13.29,0.039,191.6
2023-08-19T04:49:03,42.805,6.029,0.003,-0.024,-0.012,103.0,102.0,103.0,13.4,1505.2,331.9,-0.8,1.8,2471.388,13.29,0.024,172.9
2023-08-19T04:52:03,42.805,6.029,-0.007,-0.036,-0.033,106.0,104.0,102.0,13.4,1505.2,327.9,-0.8,1.8,2471.371,13.29,0.036,191.0
2023-08-19T04:55:03,42.805,6.029,-0.011,-0.021,-0.054,104.0,104.0,101.0,13.3,1505.2,325.8,-0.7,1.8,2471.368,13.29,0.023,207.6
2023-08-19T04:58:03,42.805,6.029,-0.007,-0.027,-0.045,103.0,103.0,102.0,13.4,1505.2,342.3,-0.8,1.8,2471.395,13.29,0.027,194.5
2023-08-19T05:04:03,42.805,6.029,0.019,-0.036,-0.019,104.0,103.0,102.0,13.3,1505.2,336.6,-0.8,1.8,2471.426,13.28,0.04,152.2
2023-08-19T05:07:03,42.805,6.029,-0.017,0.005,-0.019,104.0,103.0,101.0,13.4,1505.2,344.9,-0.8,1.8,2471.425,13.29,0.017,286.4
2023-08-19T05:10:03,42.805,6.029,-0.003,-0.033,-0.022,104.0,104.0,102.0,13.4,1505.2,350.3,-0.8,1.8,2471.43,13.29,0.033,185.2
2023-08-19T05:13:03,42.805,6.029,0.003,-0.015,-0.012,103.0,103.0,102.0,13.3,1505.2,325.7,-0.8,1.8,2471.459,13.29,0.015,168.7
2023-08-19T05:16:03,42.805,6.029,-0.038,-0.027,-0.039,104.0,103.0,103.0,13.4,1505.2,351.0,-0.8,1.8,2471.439,13.29,0.046,234.6
2023-08-19T05:19:03,42.805,6.029,-0.015,-0.032,-0.039,104.0,103.0,102.0,13.4,1505.2,340.0,-0.7,1.8,2471.43,13.29,0.035,205.1
2023-08-19T05:22:03,42.805,6.029,-0.005,-0.017,-0.009,104.0,103.0,102.0,13.4,1505.2,346.4,-0.8,1.8,2471.419,13.29,0.017,196.4
2023-08-19T05:25:03,42.805,6.029,-0.019,0.0,-0.008,105.0,104.0,101.0,13.3,1505.2,335.4,-0.7,1.8,2471.414,13.29,0.019,270.0
2023-08-19T05:28:03,42.805,6.029,0.003,-0.036,-0.021,103.0,104.0,102.0,13.4,1505.2,331.2,-0.8,1.8,2471.423,13.29,0.036,175.2
2023-08-19T05:31:03,42.805,6.029,-0.026,-0.018,-0.023,103.0,103.0,103.0,13.3,1505.2,346.2,-0.8,1.8,2471.402,13.29,0.031,235.3
2023-08-19T05:34:03,42.805,6.029,0.013,-0.022,-0.019,104.0,103.0,101.0,13.3,1505.2,349.5,-0.8,1.8,2471.394,13.29,0.025,149.4
2023-08-19T05:37:03,42.805,6.029,-0.019,-0.051,-0.054,104.0,103.0,102.0,13.3,1505.2,320.3,-0.7,1.8,2471.419,13.29,0.054,200.4
2023-08-19T05:40:03,42.805,6.029,-0.016,-0.004,-0.051,103.0,104.0,102.0,13.4,1505.2,343.3,-0.7,1.8,2471.406,13.29,0.016,256.0
2023-08-19T05:43:03,42.805,6.029,-0.018,-0.024,-0.025,104.0,104.0,102.0,13.4,1505.2,342.2,-0.8,1.8,2471.396,13.29,0.03,216.9
2023-08-19T05:46:03,42.805,6.029,0.003,-0.027,-0.047,104.0,102.0,102.0,13.4,1505.2,336.1,-0.8,1.8,2471.397,13.29,0.027,173.7
2023-08-19T05:49:03,42.805,6.029,-0.002,-0.016,-0.038,104.0,104.0,102.0,13.3,1505.2,352.8,-0.7,1.8,2471.43,13.29,0.016,187.1
2023-08-19T05:52:03,42.805,6.029,-0.007,-0.035,-0.062,104.0,105.0,102.0,13.3,1505.2,344.3,-0.8,1.8,2471.431,13.29,0.035,191.3
2023-08-19T05:55:03,42.805,6.029,-0.013,-0.028,-0.044,104.0,105.0,103.0,13.4,1505.2,329.5,-0.8,1.8,2471.431,13.29,0.03,204.9
2023-08-19T05:58:03,42.805,6.029,-0.017,-0.002,-0.026,102.0,104.0,102.0,13.4,1505.2,319.6,-0.8,1.8,2471.389,13.29,0.017,263.3
2023-08-19T06:04:03,42.805,6.029,-0.029,-0.028,-0.017,104.0,103.0,102.0,13.3,1505.2,345.7,-0.8,1.8,2471.452,13.28,0.04,226.0
2023-08-19T06:07:03,42.805,6.029,-0.017,-0.028,-0.021,104.0,103.0,103.0,13.4,1505.2,350.1,-0.8,1.8,2471.458,13.29,0.032,211.3
2023-08-19T06:10:03,42.805,6.029,-0.012,-0.029,-0.025,104.0,103.0,102.0,13.4,1505.2,332.8,-0.8,1.8,2471.468,13.29,0.031,202.5
2023-08-19T06:13:03,42.805,6.029,-0.013,-0.021,-0.032,103.0,105.0,101.0,13.3,1505.2,323.5,-0.8,1.8,2471.468,13.29,0.024,211.8
2023-08-19T06:16:03,42.805,6.029,-0.013,0.01,-0.016,104.0,104.0,101.0,13.4,1505.2,350.3,-0.8,1.8,2471.471,13.29,0.016,307.6
2023-08-19T06:19:03,42.805,6.029,0.004,-0.023,-0.024,104.0,103.0,103.0,13.4,1505.2,321.4,-0.8,1.8,2471.47,13.29,0.023,170.1
2023-08-19T06:22:03,42.805,6.029,-0.011,-0.024,-0.061,104.0,103.0,102.0,13.4,1505.2,330.6,-0.8,1.8,2471.456,13.29,0.026,204.6
2023-08-19T06:25:03,42.805,6.029,-0.017,-0.024,-0.032,103.0,103.0,103.0,13.4,1505.2,327.3,-0.8,1.8,2471.443,13.29,0.029,215.3
2023-08-19T06:28:03,42.805,6.029,-0.019,-0.01,-0.033,104.0,104.0,101.0,13.3,1505.2,344.4,-0.7,1.8,2471.445,13.29,0.021,242.2
2023-08-19T06:31:03,42.805,6.029,0.0,-0.019,-0.024,104.0,103.0,101.0,13.4,1505.2,329.2,-0.7,1.8,2471.463,13.29,0.019,180.0
2023-08-19T06:34:03,42.805,6.029,-0.01,-0.028,-0.036,103.0,103.0,101.0,13.3,1505.2,331.3,-0.8,1.8,2471.443,13.29,0.029,199.6
2023-08-19T06:37:03,42.805,6.029,-0.016,-0.028,-0.029,104.0,104.0,102.0,13.4,1505.2,350.3,-0.7,1.8,2471.44,13.29,0.032,209.7
2023-08-19T06:40:03,42.805,6.029,-0.005,-0.03,-0.046,104.0,103.0,101.0,13.4,1505.2,343.7,-0.7,1.8,2471.463,13.29,0.03,189.5
2023-08-19T06:43:03,42.805,6.029,0.0,-0.018,-0.028,104.0,104.0,102.0,13.4,1505.2,324.5,-0.7,1.8,2471.418,13.29,0.018,180.0
2023-08-19T06:46:03,42.805,6.029,-0.013,-0.006,-0.024,103.0,104.0,102.0,13.4,1505.2,349.5,-0.8,1.8,2471.459,13.29,0.014,245.2
2023-08-19T06:49:03,42.805,6.029,-0.016,-0.004,-0.026,103.0,103.0,102.0,13.3,1505.2,328.4,-0.8,1.8,2471.458,13.29,0.016,256.0
2023-08-19T06:52:03,42.805,6.029,-0.006,-0.029,-0.001,104.0,103.0,102.0,13.3,1505.2,332.9,-0.8,1.8,2471.48,13.29,0.029,191.7
2023-08-19T06:55:03,42.805,6.029,-0.009,-0.034,-0.027,104.0,103.0,102.0,13.4,1505.2,350.1,-0.8,1.8,2471.45,13.29,0.035,194.8
2023-08-19T06:58:03,42.805,6.029,-0.004,-0.023,-0.048,104.0,104.0,101.0,13.3,1505.2,331.2,-0.7,1.8,2471.515,13.29,0.023,189.9
2023-08-19T07:04:03,42.805,6.029,-0.018,-0.015,-0.02,103.0,103.0,102.0,13.4,1505.2,321.6,-0.8,1.8,2471.503,13.29,0.023,230.2
2023-08-19T07:07:03,42.805,6.029,-0.016,-0.018,-0.016,104.0,103.0,102.0,13.4,1505.2,334.9,-0.8,1.8,2471.52,13.29,0.024,221.6
2023-08-19T07:10:03,42.805,6.029,-0.009,-0.023,-0.051,104.0,104.0,102.0,13.4,1505.2,330.7,-0.7,1.8,2471.501,13.29,0.024,201.4
2023-08-19T07:13:03,42.805,6.029,-0.006,0.0,-0.016,105.0,104.0,101.0,13.3,1505.2,339.8,-0.8,1.8,2471.498,13.29,0.006,270.0
2023-08-19T07:16:03,42.805,6.029,0.008,-0.017,0.003,104.0,103.0,101.0,13.4,1505.2,327.8,-0.8,1.8,2471.495,13.29,0.018,154.8
2023-08-19T07:19:03,42.805,6.029,-0.013,-0.015,-0.015,104.0,103.0,102.0,13.4,1505.2,337.0,-0.8,1.8,2471.502,13.29,0.019,220.9
2023-08-19T07:22:03,42.805,6.029,-0.022,-0.007,-0.034,103.0,103.0,102.0,13.3,1505.2,323.4,-0.8,1.8,2471.471,13.29,0.023,252.4
2023-08-19T07:25:03,42.805,6.029,0.001,-0.02,-0.012,103.0,104.0,102.0,13.4,1505.2,325.3,-0.7,1.8,2471.46,13.29,0.02,177.1
2023-08-19T07:28:03,42.805,6.029,-0.01,-0.022,-0.038,103.0,104.0,101.0,13.3,1505.2,322.3,-0.8,1.8,2471.475,13.29,0.024,204.4
2023-08-19T07:31:03,42.805,6.029,-0.02,-0.029,0.009,103.0,104.0,101.0,13.4,1505.2,334.2,-0.8,1.8,2471.511,13.29,0.035,214.6
2023-08-19T07:34:03,42.805,6.029,-0.007,-0.011,-0.054,103.0,103.0,102.0,13.4,1505.2,349.9,-0.7,1.8,2471.484,13.29,0.013,212.5
2023-08-19T07:37:03,42.805,6.029,-0.002,-0.004,0.01,104.0,103.0,103.0,13.4,1505.2,329.8,-0.8,1.8,2471.498,13.29,0.004,206.6
2023-08-19T07:40:03,42.805,6.029,-0.034,0.002,-0.025,104.0,104.0,102.0,13.3,1505.2,346.7,-0.8,1.8,2471.504,13.29,0.034,273.4
2023-08-19T07:43:03,42.805,6.029,-0.02,-0.018,-0.03,104.0,104.0,102.0,13.4,1505.2,340.7,-0.8,1.8,2471.525,13.29,0.026,228.0
2023-08-19T07:46:03,42.805,6.029,-0.007,0.0,-0.011,104.0,103.0,103.0,13.4,1505.2,352.4,-0.8,1.8,2471.515,13.29,0.007,270.0
2023-08-19T07:49:03,42.805,6.029,-0.008,-0.016,-0.03,105.0,102.0,102.0,13.3,1505.2,333.4,-0.8,1.8,2471.479,13.29,0.017,206.6
2023-08-19T07:52:03,42.805,6.029,-0.005,-0.004,-0.02,103.0,103.0,102.0,13.4,1505.2,324.1,-0.8,1.8,2471.508,13.29,0.006,231.3
2023-08-19T07:55:03,42.805,6.029,-0.008,-0.024,-0.038,104.0,103.0,102.0,13.3,1505.2,336.1,-0.8,1.8,2471.492,13.29,0.025,198.4
2023-08-19T07:58:03,42.805,6.029,-0.021,-0.029,-0.02,103.0,103.0,101.0,13.3,1505.2,320.9,-0.8,1.8,2471.542,13.29,0.035,215.9
2023-08-19T08:04:03,42.805,6.029,-0.017,-0.007,-0.032,104.0,103.0,103.0,13.3,1505.2,330.3,-0.8,1.8,2471.533,13.29,0.018,247.6
2023-08-19T08:07:03,42.805,6.029,-0.031,0.001,-0.044,104.0,103.0,102.0,13.4,1505.2,352.0,-0.8,1.8,2471.578,13.29,0.031,271.8
2023-08-19T08:10:03,42.805,6.029,-0.004,0.001,-0.005,104.0,103.0,102.0,13.4,1505.2,334.3,-0.7,1.8,2471.557,13.29,0.004,284.0
2023-08-19T08:13:03,42.805,6.029,-0.009,-0.001,-0.042,105.0,101.0,102.0,13.3,1505.2,336.6,-0.7,1.8,2471.554,13.29,0.009,263.7
2023-08-19T08:16:03,42.805,6.029,-0.034,0.012,-0.023,103.0,102.0,102.0,13.4,1505.2,352.0,-0.8,1.8,2471.534,13.29,0.036,289.4
2023-08-19T08:19:03,42.805,6.029,0.0,0.0,-0.025,104.0,103.0,102.0,13.4,1505.2,345.3,-0.8,1.9,2471.521,13.29,0.0,0.0
2023-08-19T08:22:03,42.805,6.029,-0.028,-0.014,-0.011,102.0,104.0,102.0,13.4,1505.2,321.4,-0.8,1.8,2471.527,13.29,0.031,243.4
2023-08-19T08:25:03,42.805,6.029,-0.039,-0.013,-0.053,104.0,103.0,101.0,13.4,1505.2,336.8,-0.7,1.8,2471.511,13.29,0.041,251.6
2023-08-19T08:28:03,42.805,6.029,0.007,-0.008,-0.017,104.0,103.0,102.0,13.3,1505.2,341.9,-0.8,1.8,2471.522,13.29,0.01,138.8
2023-08-19T08:31:03,42.805,6.029,-0.005,0.013,0.004,103.0,102.0,102.0,13.4,1505.2,343.9,-0.8,1.8,2471.514,13.29,0.013,339.0
2023-08-19T08:34:03,42.805,6.029,-0.024,-0.01,-0.036,104.0,103.0,101.0,13.4,1505.2,337.0,-0.8,1.8,2471.569,13.29,0.026,247.4
2023-08-19T08:37:03,42.805,6.029,-0.005,-0.009,-0.042,104.0,102.0,102.0,13.4,1505.2,345.9,-0.8,1.8,2471.541,13.29,0.01,209.1
2023-08-19T08:40:03,42.805,6.029,-0.001,-0.007,-0.028,103.0,103.0,101.0,13.4,1505.2,332.1,-0.8,1.8,2471.502,13.29,0.007,188.1
2023-08-19T08:43:03,42.805,6.029,-0.012,-0.006,-0.006,104.0,103.0,103.0,13.4,1505.2,351.8,-0.7,1.8,2471.497,13.29,0.013,243.4
2023-08-19T08:46:03,42.805,6.029,-0.007,-0.017,-0.022,103.0,102.0,102.0,13.3,1505.2,347.4,-0.8,1.8,2471.503,13.29,0.018,202.4
2023-08-19T08:49:03,42.805,6.029,-0.009,-0.018,-0.018,103.0,103.0,102.0,13.4,1505.2,337.7,-0.8,1.8,2471.465,13.29,0.02,206.6
2023-08-19T08:52:03,42.805,6.029,-0.012,-0.011,-0.015,104.0,103.0,102.0,13.4,1505.2,325.3,-0.8,1.8,2471.53,13.29,0.016,227.5
2023-08-19T08:55:03,42.805,6.029,-0.03,-0.022,-0.086,104.0,102.0,102.0,13.3,1505.2,345.9,-0.8,1.8,2471.46,13.29,0.037,233.7
2023-08-19T08:58:03,42.805,6.029,-0.017,-0.011,-0.035,104.0,102.0,102.0,13.4,1505.2,341.5,-0.8,1.8,2471.47,13.29,0.02,237.1
2023-08-19T09:04:03,42.805,6.029,-0.011,-0.023,-0.051,103.0,103.0,102.0,13.4,1505.2,331.6,-0.8,1.8,2471.566,13.29,0.025,205.6
2023-08-19T09:07:03,42.805,6.029,-0.027,-0.002,-0.032,104.0,105.0,101.0,13.4,1505.2,336.6,-0.8,1.8,2471.539,13.29,0.027,265.8
2023-08-19T09:10:03,42.805,6.029,-0.019,-0.006,-0.013,103.0,103.0,102.0,13.3,1505.2,330.5,-0.8,1.8,2471.562,13.29,0.019,252.5
2023-08-19T09:13:03,42.805,6.029,-0.012,-0.015,-0.006,104.0,101.0,102.0,13.4,1505.2,337.7,-0.8,1.8,2471.527,13.29,0.019,218.7
2023-08-19T09:16:03,42.805,6.029,-0.002,0.012,0.009,103.0,102.0,103.0,13.3,1505.2,329.7,-0.8,1.8,2471.529,13.29,0.012,350.5
2023-08-19T09:19:03,42.805,6.029,0.0,0.006,-0.016,104.0,102.0,102.0,13.4,1505.2,332.9,-0.7,1.8,2471.508,13.29,0.006,0.0
2023-08-19T09:22:03,42.805,6.029,-0.001,0.003,-0.005,104.0,103.0,101.0,13.3,1505.2,324.0,-0.8,1.8,2471.5,13.29,0.003,341.6
2023-08-19T09:25:03,42.805,6.029,0.002,-0.009,-0.012,103.0,104.0,101.0,13.4,1505.2,341.1,-0.7,1.8,2471.491,13.29,0.009,167.5
2023-08-19T09:28:03,42.805,6.029,-0.024,0.011,-0.016,103.0,103.0,102.0,13.4,1505.2,335.6,-0.7,1.8,2471.512,13.29,0.026,294.6
2023-08-19T09:31:03,42.805,6.029,-0.018,0.002,-0.007,103.0,103.0,103.0,13.4,1505.2,338.4,-0.7,1.8,2471.484,13.29,0.018,276.3
2023-08-19T09:34:03,42.805,6.029,0.001,0.0,-0.021,104.0,103.0,102.0,13.3,1505.2,345.9,-0.8,1.8,2471.466,13.29,0.001,90.0
2023-08-19T09:37:03,42.805,6.029,-0.007,0.01,0.02,104.0,103.0,101.0,13.4,1505.2,319.8,-0.8,1.8,2471.478,13.29,0.012,325.0
2023-08-19T09:40:03,42.805,6.029,-0.023,-0.008,-0.054,104.0,102.0,101.0,13.4,1505.2,330.6,-0.8,1.8,2471.467,13.29,0.024,250.8
2023-08-19T09:43:03,42.805,6.029,-0.026,-0.007,-0.05,104.0,103.0,100.0,13.4,1505.2,319.8,-0.8,1.8,2471.503,13.29,0.026,254.9
2023-08-19T09:46:03,42.805,6.029,-0.031,0.001,-0.055,105.0,103.0,102.0,13.4,1505.2,330.9,-0.8,1.8,2471.495,13.29,0.031,271.8
2023-08-19T09:49:03,42.805,6.029,-0.012,0.03,-0.001,103.0,103.0,102.0,13.3,1505.2,350.3,-0.8,1.9,2471.539,13.29,0.032,338.2
2023-08-19T09:52:03,42.805,6.029,-0.005,0.0,-0.018,104.0,102.0,101.0,13.3,1505.2,336.5,-0.8,1.8,2471.474,13.29,0.005,270.0